DW8462 Weather Reports


Display with metric or nautical units.
time (UTC)temp
F
wind
direction
speed
MPH
gust
MPH
rain 1hr
in
rain 24hr
in
rain mn
in
humidity
%
barometer
mb
20260504023033 53 232 0.0 0.0 0.00 0.00 0.00 74 1008.1
20260504021536 55 232 0.0 0.0 0.00 0.00 0.00 69 1008.0
20260504020035 57 232 0.0 0.0 0.00 0.00 0.00 68 1008.0
20260504014530 57 234 0.0 0.0 0.00 0.00 0.00 65 1007.8
20260504013036 58 235 0.0 0.0 0.00 0.00 0.00 63 1007.8
20260504011529 58 254 0.0 0.0 0.00 0.00 0.00 64 1007.8
20260504010036 59 254 0.0 0.0 0.00 0.00 0.00 62 1007.8
20260504004526 61 254 0.0 0.0 0.00 0.00 0.00 58 1007.8
20260504003025 63 254 0.0 0.0 0.00 0.00 0.00 54 1007.9
20260504001525 65 360 0.0 0.0 0.00 0.00 0.00 51 1008.0
20260504000024 66 182 0.0 0.0 0.00 0.00 0.00 50 1007.8
20260503234521 67 360 0.0 0.0 0.00 0.00 0.00 49 1007.9
20260503233019 67 360 0.0 0.0 0.00 0.00 0.00 50 1008.1
20260503231517 66 177 0.0 0.0 0.00 0.00 0.00 50 1008.1
20260503230016 65 200 0.0 0.0 0.00 0.00 0.00 49 1008.3
20260503224511 65 223 0.0 0.0 0.00 0.00 0.00 49 1008.4
20260503223010 66 360 0.0 0.0 0.00 0.00 0.00 49 1008.6
20260503221507 65 199 0.0 0.0 0.00 0.00 0.00 50 1008.7
20260503220008 64 157 0.0 0.0 0.00 0.00 0.00 50 1008.8
20260503214504 64 186 0.0 0.0 0.00 0.00 0.00 51 1008.8
20260503213005 64 165 0.0 0.0 0.00 0.00 0.00 51 1008.8
20260503211610 65 183 0.0 0.0 0.00 0.00 0.00 47 1009.2
20260503210059 63 360 0.0 0.0 0.00 0.00 0.00 49 1009.4
20260503204557 65 146 0.0 0.0 0.00 0.00 0.00 47 1009.5
20260503203052 64 181 0.0 0.0 0.00 0.00 0.00 45 1009.8
20260503201550 64 178 0.0 0.0 0.00 0.00 0.00 47 1010.1
20260503200049 63 229 0.0 0.0 0.00 0.00 0.00 46 1010.4
20260503194525 63 172 0.0 0.0 0.00 0.00 0.00 47 1010.6
20260503193016 63 360 0.0 0.0 0.00 0.00 0.00 45 1010.8
20260503191515 62 223 0.0 0.0 0.00 0.00 0.00 46 1010.9
20260503190018 62 360 0.0 0.0 0.00 0.00 0.00 48 1011.3
20260503184507 62 239 0.0 0.0 0.00 0.00 0.00 48 1011.6
20260503183009 61 196 0.0 0.0 0.00 0.00 0.00 49 1012.0
20260503181623 61 225 0.0 0.0 0.00 0.00 0.00 51 1012.3
20260503180026 59 244 0.0 0.0 0.00 0.00 0.00 53 1012.8
20260503174522 59 182 0.0 0.0 0.00 0.00 0.00 59 1013.6
20260503173037 56 218 0.0 0.0 0.00 0.00 0.00 61 1014.0
20260503171514 56 180 0.0 0.0 0.00 0.00 0.00 61 1014.4
20260503100120 38 296 0.0 0.0 0.00 0.00 0.00 85 1016.5
20260503081520 37 302 0.0 0.0 0.00 0.00 0.00 87 1016.7
20260503071546 37 302 0.0 0.0 0.00 0.00 0.00 86 1016.9
20260503054532 38 302 0.0 0.0 0.00 0.00 0.00 85 1017.6
20260503053037 38 302 0.0 0.0 0.00 0.00 0.00 84 1017.7
20260503051524 38 302 0.0 0.0 0.00 0.00 0.00 84 1017.8
20260503050022 39 302 0.0 0.0 0.00 0.00 0.00 83 1017.8
20260503044553 39 302 0.0 0.0 0.00 0.00 0.00 82 1017.8
20260503043021 40 302 0.0 0.0 0.00 0.00 0.00 80 1017.8
20260503041519 40 302 0.0 0.0 0.00 0.00 0.00 79 1017.9
20260503040019 40 302 0.0 0.0 0.00 0.00 0.00 78 1017.9
20260503034517 41 302 0.0 0.0 0.00 0.00 0.00 77 1018.0
20260503033016 42 302 0.0 0.0 0.00 0.00 0.00 76 1017.9
20260503031546 43 302 0.0 0.0 0.00 0.00 0.00 73 1018.0
20260503030047 44 302 0.0 0.0 0.00 0.00 0.00 72 1018.1
20260503024542 44 302 0.0 0.0 0.00 0.00 0.00 72 1018.1